TimeCST,TemperatureF,Dew PointF,Humidity,Sea Level PressureIn,VisibilityMPH,Wind Direction,Wind SpeedMPH,Gust SpeedMPH,PrecipitationIn,Events,Conditions,WindDirDegrees,DateUTC
6:00 AM,75,71,85,29.99,4,West,3.5,,,,Mostly Cloudy,260,2012-11-15 12:00:00
6:00 AM,75.2,71.6,89,29.98,3.7,West,3.5,-,N/A,,Scattered Clouds,260,2012-11-15 12:00:00
7:00 AM,75.2,71.6,89,29.98,1.2,NNW,3.5,-,N/A,Rain,Rain,330,2012-11-15 13:00:00
8:00 AM,73.4,69.8,88,30.01,3.1,WSW,5.8,-,N/A,,Light Drizzle,250,2012-11-15 14:00:00
9:00 AM,76,72,85,30.04,4,WSW,3.5,,,Rain,Light Drizzle,250,2012-11-15 15:00:00
9:00 AM,77.0,71.6,83,30.04,3.7,WSW,3.5,-,N/A,,Mostly Cloudy,250,2012-11-15 15:00:00
10:00 AM,77.0,73.4,89,30.04,1.2,SW,11.5,-,N/A,,Heavy Drizzle,230,2012-11-15 16:00:00
11:00 AM,78.8,73.4,83,30.04,6.2,WSW,9.2,-,N/A,,Scattered Clouds,240,2012-11-15 17:00:00
12:00 PM,80,73,75,30.01,6,SW,9.2,,,,Mostly Cloudy,230,2012-11-15 18:00:00
12:00 PM,80.6,73.4,79,30.01,6.2,SW,9.2,-,N/A,,Scattered Clouds,230,2012-11-15 18:00:00
1:00 PM,84.2,69.8,62,29.98,6.2,North,6.9,-,N/A,,Scattered Clouds,350,2012-11-15 19:00:00
2:00 PM,84.2,69.8,62,29.95,6.2,NNW,6.9,-,N/A,,Scattered Clouds,340,2012-11-15 20:00:00
3:00 PM,83,70,57,29.96,6,North,4.6,,,,Mostly Cloudy,350,2012-11-15 21:00:00
3:00 PM,82.4,69.8,66,29.95,6.2,North,4.6,-,N/A,,Scattered Clouds,350,2012-11-15 21:00:00
4:00 PM,82.4,71.6,70,29.95,5.0,WNW,2.3,-,N/A,,Scattered Clouds,300,2012-11-15 22:00:00
5:00 PM,77.0,69.8,78,29.98,3.7,ENE,6.9,-,N/A,,Mostly Cloudy,70,2012-11-15 23:00:00
6:00 PM,76,70,77,29.99,6,North,2.3,,,,Mostly Cloudy,0,2012-11-16 00:00:00
6:00 PM,77.0,69.8,78,29.98,6.2,North,2.3,-,N/A,,Mostly Cloudy,360,2012-11-16 00:00:00
7:00 PM,75.2,69.8,83,30.01,1.9,NNW,3.5,-,N/A,,Heavy Drizzle,330,2012-11-16 01:00:00
8:00 PM,73.4,69.8,88,30.04,1.2,North,4.6,-,N/A,Rain,Light Rain,360,2012-11-16 02:00:00